Peru, IL

9:27 PM CDT on April 20, 2018 (GMT -0500)
Illinois Valley Regional-Duncan

Weather History for KVYS - March, 2014

Change the Weather History Date:

Thursday, March 13, 2014

  Actual Average Record
Temperature  
Mean Temperature 30 °F -  
Max Temperature 41 °F 44 °F 80 °F (1990)
Min Temperature 19 °F 27 °F 13 °F (1969)
Degree Days  
Heating Degree Days 35    
Moisture  
Dew Point 24 °F    
Average Humidity 82    
Maximum Humidity 93    
Minimum Humidity 71    
Precipitation  
Precipitation 0.00 in - - ()
Sea Level Pressure  
Sea Level Pressure 30.02 in    
Wind  
Wind Speed 6 mph (South)    
Max Wind Speed 20 mph    
Max Gust Speed 24 mph    
Visibility 9 miles    
Events      
Averages and records for this station are not official NWS values.
T = Trace of Precipitation, MM = Missing Value Source: NWS Daily Summary

Daily Weather History Graph

Daily Weather History Graph

Search for Another Location

Airport or City:

Astronomy

Mar. 13, 2014 Rise Set
Actual Time 7:11 AM CDT 7:01 PM CDT
Civil Twilight 6:44 AM CDT 7:28 PM CDT
Nautical Twilight 6:12 AM CDT 8:00 PM CDT
Astronomical Twilight 5:39 AM CDT 8:33 PM CDT
Moon 4:25 PM CDT (3/13) 5:20 AM CDT (3/13)
Length of Visible Light 12h 44m
Length of Day
11h 49m
Waxing Gibbous, 91% of the Moon is Illuminated
Mar 13
Waxing Gibbous
Mar 16
Full
Mar 23
Last Quarter
Mar 30
New
Apr 7
First Quarter

Hourly Weather History & Observations

Time (CDT) Temp. Windchill Dew Point Humidity Pressure Visibility Wind Dir Wind Speed Gust Speed Precip Events Conditions
12:15 AM 24.6 °F - 17.4 °F 74% 30.11 in 10.0 mi Calm Calm - N/A   Overcast
12:35 AM 24.8 °F - 17.6 °F 74% 30.11 in 10.0 mi Calm Calm - N/A   Overcast
12:55 AM 24.6 °F - 17.6 °F 75% 30.11 in 10.0 mi Calm Calm - N/A   Overcast
1:15 AM 24.6 °F - 18.1 °F 76% 30.11 in 10.0 mi Calm Calm - N/A   Overcast
1:35 AM 24.6 °F 20.3 °F 16.7 °F 72% 30.11 in 10.0 mi ESE 3.5 mph - N/A   Overcast
1:55 AM 24.3 °F - 16.7 °F 73% 30.11 in 10.0 mi Calm Calm - N/A   Overcast
2:15 AM 23.7 °F - 15.6 °F 71% 30.11 in 10.0 mi Calm Calm - N/A   Overcast
2:35 AM 22.6 °F - 15.3 °F 73% 30.11 in 10.0 mi Calm Calm - N/A   Mostly Cloudy
2:55 AM 21.9 °F - 15.6 °F 77% 30.11 in 10.0 mi Calm Calm - N/A   Scattered Clouds
3:15 AM 21.4 °F - 15.8 °F 79% 30.11 in 10.0 mi Calm Calm - N/A   Clear
3:35 AM 21.2 °F - 16.3 °F 82% 30.10 in 10.0 mi Calm Calm - N/A   Clear
3:55 AM 20.5 °F - 15.8 °F 82% 30.10 in 10.0 mi Calm Calm - N/A   Clear
4:15 AM 20.7 °F - 16.3 °F 83% 30.11 in 10.0 mi Calm Calm - N/A   Clear
4:35 AM 20.3 °F - 16.7 °F 86% 30.11 in 10.0 mi Calm Calm - N/A   Clear
4:55 AM 20.1 °F 13.6 °F 16.5 °F 86% 30.11 in 10.0 mi SSE 4.6 mph - N/A   Clear
5:15 AM 19.8 °F - 16.2 °F 86% 30.12 in 10.0 mi Calm Calm - N/A   Clear
5:35 AM 19.4 °F - 15.8 °F 86% 30.11 in 10.0 mi Calm Calm - N/A   Clear
5:55 AM 19.8 °F - 16.3 °F 87% 30.11 in 10.0 mi Calm Calm - N/A   Clear
6:15 AM 19.4 °F - 15.8 °F 86% 30.11 in 10.0 mi Calm Calm - N/A   Clear
6:35 AM 19.4 °F - 16.5 °F 89% 30.10 in 10.0 mi Calm Calm - N/A   Clear
6:55 AM 19.4 °F - 16.7 °F 89% 30.11 in 10.0 mi Calm Calm - N/A   Clear
7:15 AM 19.4 °F 10.4 °F 16.9 °F 90% 30.12 in 7.0 mi South 6.9 mph - N/A   Clear
7:35 AM 19.4 °F 9.5 °F 17.1 °F 91% 30.11 in 7.0 mi South 8.1 mph - N/A   Scattered Clouds
7:55 AM 20.3 °F 12.5 °F 18.0 °F 91% 30.12 in 5.0 mi South 5.8 mph - N/A   Mostly Cloudy
8:15 AM 20.3 °F 12.5 °F 18.0 °F 91% 30.13 in 5.0 mi South 5.8 mph - N/A   Overcast
8:35 AM 19.8 °F 11.9 °F 17.6 °F 91% 30.13 in 3.0 mi South 5.8 mph - N/A   Scattered Clouds
8:55 AM 20.3 °F 12.5 °F 18.5 °F 93% 30.13 in 2.5 mi South 5.8 mph - N/A   Scattered Clouds
9:15 AM 21.0 °F 14.6 °F 19.2 °F 93% 30.12 in 3.0 mi SSE 4.6 mph - N/A   Overcast
9:35 AM 22.1 °F 14.7 °F 19.9 °F 91% 30.12 in 4.0 mi South 5.8 mph - N/A   Overcast
9:55 AM 23.2 °F 15.0 °F 20.5 °F 89% 30.12 in 5.0 mi South 6.9 mph - N/A   Overcast
10:15 AM 24.6 °F 17.7 °F 21.2 °F 87% 30.11 in 7.0 mi SSE 5.8 mph - N/A   Overcast
10:35 AM 25.2 °F 15.7 °F 21.6 °F 86% 30.11 in 10.0 mi South 9.2 mph - N/A   Overcast
10:55 AM 25.9 °F 16.0 °F 21.9 °F 85% 30.11 in 10.0 mi South 10.4 mph - N/A   Overcast
11:15 AM 26.6 °F 16.2 °F 22.1 °F 83% 30.09 in 10.0 mi South 11.5 mph - N/A   Overcast
11:35 AM 27.9 °F 16.8 °F 22.8 °F 81% 30.08 in 10.0 mi South 13.8 mph - N/A   Overcast
11:55 AM 28.6 °F 16.8 °F 23.0 °F 80% 30.07 in 10.0 mi South 16.1 mph - N/A   Overcast
12:15 PM 29.7 °F 18.2 °F 24.1 °F 80% 30.06 in 10.0 mi South 16.1 mph - N/A   Overcast
12:35 PM 30.9 °F 20.2 °F 24.6 °F 77% 30.06 in 10.0 mi South 15.0 mph - N/A   Overcast
12:55 PM 32.0 °F 20.5 °F 25.2 °F 76% 30.05 in 10.0 mi South 18.4 mph 23.0 mph N/A   Overcast
1:15 PM 32.0 °F 20.5 °F 24.8 °F 75% 30.03 in 10.0 mi South 18.4 mph - N/A   Overcast
1:35 PM 32.2 °F 20.4 °F 25.3 °F 76% 30.01 in 10.0 mi South 19.6 mph 24.2 mph N/A   Overcast
1:55 PM 33.1 °F 22.2 °F 26.2 °F 76% 30.00 in 10.0 mi South 17.3 mph - N/A   Overcast
2:15 PM 34.0 °F 23.0 °F 27.0 °F 75% 29.98 in 10.0 mi South 18.4 mph - N/A   Scattered Clouds
2:35 PM 34.3 °F 23.2 °F 26.8 °F 74% 29.98 in 10.0 mi South 19.6 mph - N/A   Clear
2:55 PM 34.5 °F 24.5 °F 27.7 °F 76% 29.98 in 10.0 mi South 16.1 mph - N/A   Clear
3:15 PM 35.6 °F 25.9 °F 28.8 °F 76% 29.98 in 10.0 mi South 16.1 mph 20.7 mph N/A   Clear
3:35 PM 36.0 °F 25.6 °F 29.3 °F 77% 29.97 in 10.0 mi South 18.4 mph 21.9 mph N/A   Clear
3:55 PM 36.5 °F 27.4 °F 30.0 °F 77% 29.97 in 10.0 mi South 15.0 mph 20.7 mph N/A   Clear
4:15 PM 36.9 °F 28.2 °F 30.7 °F 79% 29.96 in 10.0 mi South 13.8 mph - N/A   Clear
4:35 PM 37.4 °F 29.3 °F 31.1 °F 78% 29.95 in 10.0 mi South 12.7 mph - N/A   Clear
4:55 PM 37.6 °F 30.0 °F 31.6 °F 79% 29.94 in 10.0 mi South 11.5 mph - N/A   Clear
5:15 PM 37.9 °F 29.6 °F 32.0 °F 79% 29.93 in 10.0 mi South 13.8 mph - N/A   Clear
5:35 PM 38.3 °F 30.5 °F 32.2 °F 79% 29.93 in 10.0 mi South 12.7 mph - N/A   Clear
5:55 PM 38.3 °F 30.9 °F 32.7 °F 80% 29.92 in 10.0 mi South 11.5 mph - N/A   Clear
6:15 PM 38.3 °F 33.2 °F 32.9 °F 81% 29.92 in 10.0 mi South 6.9 mph - N/A   Clear
6:35 PM 37.6 °F 32.3 °F 32.9 °F 83% 29.92 in 10.0 mi South 6.9 mph - N/A   Clear
6:55 PM 36.9 °F 30.1 °F 32.9 °F 86% 29.91 in 10.0 mi SSE 9.2 mph - N/A   Clear
7:15 PM 36.0 °F 30.3 °F 32.5 °F 87% 29.91 in 10.0 mi SSE 6.9 mph - N/A   Clear
7:35 PM 36.0 °F 30.3 °F 32.9 °F 89% 29.91 in 10.0 mi SSE 6.9 mph - N/A   Clear
7:55 PM 36.7 °F 31.2 °F 33.4 °F 88% 29.90 in 10.0 mi SSE 6.9 mph - N/A   Clear
8:15 PM 36.9 °F 30.7 °F 33.3 °F 87% 29.90 in 10.0 mi South 8.1 mph - N/A   Clear
8:35 PM 36.7 °F 29.4 °F 33.4 °F 88% 29.89 in 10.0 mi South 10.4 mph - N/A   Clear
8:55 PM 37.6 °F 29.1 °F 34.2 °F 87% 29.88 in 10.0 mi SSW 13.8 mph - N/A   Clear
9:15 PM 39.6 °F 31.0 °F 35.2 °F 85% 29.88 in 10.0 mi SSW 16.1 mph - N/A   Clear
9:35 PM 40.1 °F 31.3 °F 34.9 °F 82% 29.88 in 10.0 mi SSW 17.3 mph 23.0 mph N/A   Clear
9:55 PM 40.1 °F 32.0 °F 34.7 °F 81% 29.88 in 10.0 mi SSW 15.0 mph - N/A   Clear
10:15 PM 41.0 °F 32.8 °F 34.9 °F 79% 29.87 in 10.0 mi SSW 16.1 mph - N/A   Clear
10:35 PM 41.0 °F 33.1 °F 34.5 °F 78% 29.86 in 10.0 mi SSW 15.0 mph - N/A   Clear
10:55 PM 40.6 °F 33.0 °F 34.2 °F 78% 29.86 in 10.0 mi SSW 13.8 mph - N/A   Clear
11:15 PM 41.0 °F 32.8 °F 33.8 °F 76% 29.85 in 10.0 mi SSW 16.1 mph - N/A   Clear
11:35 PM 41.0 °F 32.5 °F 33.6 °F 75% 29.85 in 10.0 mi SSW 17.3 mph 23.0 mph N/A   Clear
11:55 PM 41.0 °F 32.8 °F 33.3 °F 74% 29.84 in 10.0 mi SSW 16.1 mph - N/A   Clear